STARLINK-1454, 45671

Orbit data source: Space-Track

STARLINK-1454, 45671 is a payload satellite owned by SpaceX/Seattle (US) in LEO that was launched on Thu, 04 Jun 2020 UTC via an FALCON 9 launch vehicle from the Air Force Eastern Test Range (AFETR). Payload-class satellites include a variety of spacecraft equipped with specific instruments for various scientific and technological missions. These include communications satellites like Starlink; space stations such as the ISS; scientific satellites like the Hubble; Earth observation satellites from companies like Planet Labs, Umbra, and HawkEye 360; GPS; miniature CubeSats for education and research; and military/defense satellites.

Loading next visibility...
Identifier
45671, 2020-035Q
Orbit
LEO
Country
Flag of USUS
Related business
Manufacturer
SpaceX/Seattle
Mission
Operational Commercial Communications
Bus & Motor
STARLINK, Unknown motor
Mass
260 kg wet, ~248 kg dry
Launch date (UTC)
2020-06-04 (5 years ago)
Launch vehicle
FALCON 9
Launch site
Air Force Eastern Test Range (AFETR)
Object type
Payload
Rocket body
Debris
Shape & HBR
Box + 1 Pan, 4.4 m
Radar Cross Section
13.562 m², Large (>1 m²)

Expand to show TLE details & history
Last TLE update: 18 hours ago

TLE from 18 hours ago
0 STARLINK-1454
1 45671U 20035Q   25259.02827931  .00003569  00000-0  25826-3 0  9997
2 45671  53.0542 130.7055 0001504  96.7068 263.4092 15.06412361292391
Epoch: 2025-09-16T00:40Z
TLE epoch observation values (Epoch: 2025-09-16T00:40:43.332Z)
Latitude
-0.00003°
Longitude
125.30046°
Altitude
548.173 km
Speed
7.589 km/s
True Right ascension
08h 42m 49s
True Declination
0° 00' 00"
Sunlit
Object was in daylight at epoch
Visualization orbit readout
Latitude
Unknown
Longitude
Unknown
Altitude
Unknown
Speed
Unknown
Apparent Right ascension
Unknown
Apparent Declination
Unknown
Sunlit
N/A
Visualization observer readout
Local Sidereal Time
11:30:06
Azimuth
Unknown
Elevation
Unknown
Doppler factor
Unknown
Orbital elements
Apogee altitude
548.486 km
Perigee altitude
546.403 km
Semi-major axis
6,925.581 km
Eccentricity
0.00015
Inclination
53.0542°
RAAN
130.7055°
Arg. of periapsis
96.7068°
True anomaly
263.39208°
Mean anomaly
263.4092°
Eccentric anomaly
263.40064°
Mean motion
3.76581 °/min
Orbital period
95.6 mins
BSTAR
0.00025826
Loading maneuver chart data...
Computing Atmospheric mass density...

Documentation

Showing up to 5 results
|